Danbury, CT

11:05 AM EDT on August 28, 2016 (GMT -0400)
Danbury Municipal

Weather History for KDXR - January, 2014

Change the Weather History Date:

Thursday, January 9, 2014

  Actual Average Record
Temperature  
Mean Temperature 21 °F -  
Max Temperature 30 °F 31 °F 60 °F (2008)
Min Temperature 12 °F 14 °F -10 °F (1968)
Degree Days  
Heating Degree Days 44    
Moisture  
Dew Point 6 °F    
Average Humidity 58    
Maximum Humidity 77    
Minimum Humidity 36    
Precipitation  
Precipitation 0.00 in - - ()
Sea Level Pressure  
Sea Level Pressure 30.59 in    
Wind  
Wind Speed 3 mph (West)    
Max Wind Speed 7 mph    
Max Gust Speed -    
Visibility 10 miles    
Events      
Averages and records for this station are not official NWS values.
T = Trace of Precipitation, MM = Missing Value Source: NWS Daily Summary

Daily Weather History Graph

Daily Weather History Graph

Search for Another Location

Airport or City:

Trip Planner

Search our weather history database for the weather conditions in past years. The results will help you decide how hot, cold, wet, or windy it might be!

Date:

Astronomy

Jan. 09, 2014 Rise Set
Actual Time 7:19 AM EST 4:42 PM EST
Civil Twilight 6:48 AM EST 5:13 PM EST
Nautical Twilight 6:14 AM EST 5:48 PM EST
Astronomical Twilight 5:41 AM EST 6:21 PM EST
Moon 12:09 PM EST (1/9) 1:22 AM EST (1/9)
Length of Visible Light 10h 24m
Length of Day
9h 23m
Waxing Gibbous, 66% of the Moon is Illuminated
Jan 9
Waxing Gibbous
Jan 15
Full
Jan 24
Last Quarter
Jan 30
New
Feb 6
First Quarter

Hourly Weather History & Observations

Time (EST) Temp. Windchill Dew Point Humidity Pressure Visibility Wind Dir Wind Speed Gust Speed Precip Events Conditions
12:53 AM 15.1 °F 9.4 °F 1.9 °F 56% 30.48 in 10.0 mi SW 3.5 mph - N/A   Clear
1:53 AM 16.0 °F 8.8 °F 1.9 °F 54% 30.49 in 10.0 mi West 4.6 mph - N/A   Clear
2:53 AM 17.1 °F 11.7 °F 3.0 °F 54% 30.50 in 10.0 mi SW 3.5 mph - N/A   Mostly Cloudy
3:53 AM 17.1 °F 11.7 °F 5.0 °F 59% 30.51 in 10.0 mi WSW 3.5 mph - N/A   Overcast
4:53 AM 17.1 °F 10.0 °F 5.0 °F 59% 30.53 in 10.0 mi SW 4.6 mph - N/A   Clear
5:53 AM 14.0 °F - 5.0 °F 67% 30.55 in 10.0 mi Calm Calm - N/A   Clear
6:53 AM 12.0 °F 5.9 °F 5.0 °F 73% 30.58 in 10.0 mi WSW 3.5 mph - N/A   Clear
7:53 AM 12.0 °F - 5.0 °F 73% 30.61 in 10.0 mi Calm Calm - N/A   Clear
8:53 AM 19.9 °F 12.1 °F 7.0 °F 57% 30.63 in 10.0 mi West 5.8 mph - N/A   Clear
9:53 AM 23.0 °F 15.8 °F 7.0 °F 50% 30.65 in 10.0 mi WNW 5.8 mph - N/A   Clear
10:53 AM 25.0 °F 18.1 °F 6.1 °F 45% 30.65 in 10.0 mi WNW 5.8 mph - N/A   Clear
11:53 AM 28.0 °F 20.8 °F 7.0 °F 41% 30.62 in 10.0 mi North 6.9 mph - N/A   Clear
12:53 PM 28.0 °F 20.8 °F 6.1 °F 39% 30.61 in 10.0 mi Variable 6.9 mph - N/A   Clear
1:53 PM 30.0 °F 26.5 °F 7.0 °F 38% 30.59 in 10.0 mi Variable 3.5 mph - N/A   Clear
2:53 PM 30.0 °F 25.2 °F 6.1 °F 36% 30.61 in 10.0 mi WNW 4.6 mph - N/A   Clear
3:53 PM 30.0 °F 25.2 °F 7.0 °F 38% 30.62 in 10.0 mi North 4.6 mph - N/A   Clear
4:53 PM 25.0 °F - 9.0 °F 51% 30.64 in 9.0 mi Calm Calm - N/A   Clear
6:53 PM 19.0 °F - 9.0 °F 65% 30.66 in 9.0 mi Calm Calm - N/A   Clear
7:53 PM 17.1 °F - 8.1 °F 68% 30.66 in 10.0 mi Calm Calm - N/A   Clear
8:53 PM 15.1 °F - 8.1 °F 74% 30.63 in 10.0 mi Calm Calm - N/A   Clear
9:53 PM 14.0 °F - 8.1 °F 77% 30.63 in 10.0 mi Calm Calm - N/A   Clear
10:53 PM 14.0 °F - 8.1 °F 77% 30.61 in 10.0 mi Calm Calm - N/A   Clear
11:53 PM 14.0 °F - 8.1 °F 77% 30.61 in 9.0 mi Calm Calm - N/A   Clear